星链-30180 (STARLINK-30180 )

导读 | 豆包AI

STARLINK-30180是美国太空探索技术公司Starlink星座的卫星成员,归属美国所有,于2023年7月24日发射入轨,属于Starlink批量化组网卫星。它是星链低轨互联网星座的组成部分,承担全球宽带互联网覆盖服务相关任务,跟随星链星座部署节奏,推进星座全球服务能力的构建。

Basic Information
目录编号:
57435
目录名称:
STARLINK-30180
国际标识:
2023-105F
轨道中心:
EARTH
卫星名称:
星链-30180
卫星全名:
星链-30180 (STARLINK-30180 )
卫星状态:
已陨落 最后检测时间 2025-06-16
发射日期:
2023-07-24 UTC
国别 :
美国 (US)
星等 :
--
Orbit Information
数据来源 国际轨道数据
星历时间: 2025-06-15T23:31:22+0800
轨道信息已过期319天
半长轴: 6597.38km
偏心率: 0.0010651
轨道倾角: 42.973°
近地点辐角 24.241°
升交点赤经 229.849°
平近点角 110.670°
近地点: 212.218km
远地点: 226.272km
周期: 88.883分钟
每日圈数: 16.201138
Detailed Information
固有亮度:
5
最大亮度:
0.3
卫星平台:
Starlink v2.0 mini
覆盖范围:
全球
运营商:
太空探索技术公司
运营商所在国:
美国
制造商(研发单位):
太空探索技术公司
制造商所在国:
美国
使用方式:
暂无
Satellite Introduction
星链(Starlink)计划是由太空探索技术公司(SpaceX)提出的一个巨型低轨卫星互联网星座项目,计划在2019年至2024年间在太空搭建由约1.2万颗卫星组成的“星链”网络,其中1584颗将部署在地球上空550千米处的近地轨道,并从2020年开始工作。该卫星仍在工作。